Waskish, MN

9:47 PM CDT on May 25, 2018 (GMT -0500)
Waskish Municipal

Weather History for KVWU - May, 2013

Change the Weather History Date:

Friday, May 10, 2013

  Actual Average (KBDE) Record (KBDE)
Temperature  
Mean Temperature 44 °F -  
Max Temperature 59 °F 66 °F 83 °F (1991)
Min Temperature 28 °F 41 °F 23 °F (1945)
Degree Days  
Heating Degree Days 22    
Moisture  
Dew Point 31 °F    
Average Humidity 61    
Maximum Humidity 86    
Minimum Humidity 38    
Precipitation  
Precipitation 0.01 in - - ()
Sea Level Pressure  
Sea Level Pressure 30.05 in    
Wind  
Wind Speed 6 mph (SW)    
Max Wind Speed 16 mph    
Max Gust Speed 31 mph    
Visibility 10 miles    
Events Rain    
Averages and records for this station are not official NWS values.
T = Trace of Precipitation, MM = Missing Value Source: NWS Daily Summary

Daily Weather History Graph

Daily Weather History Graph

Search for Another Location

Airport or City:

Astronomy

May. 10, 2013 Rise Set
Actual Time 5:45 AM CDT 8:44 PM CDT
Civil Twilight 5:08 AM CDT 9:21 PM CDT
Nautical Twilight 4:21 AM CDT 10:08 PM CDT
Astronomical Twilight 3:24 AM CDT 11:06 PM CDT
Moon 6:09 AM CDT (5/10) 9:36 PM CDT (5/10)
Length of Visible Light 16h 12m
Length of Day
14h 59m
New Moon, 0% of the Moon is Illuminated
May 10
New Moon
May 17
First Quarter
May 24
Full
May 31
Last Quarter
Jun 8
New

Hourly Weather History & Observations

Time (CDT) Temp. Windchill Dew Point Humidity Pressure Visibility Wind Dir Wind Speed Gust Speed Precip Events Conditions
12:14 AM 41.0 °F 37.1 °F 26.6 °F 57% 30.21 in 10.0 mi ENE 5.8 mph - N/A   Clear
12:53 AM 39.2 °F 35.0 °F 26.6 °F 61% 30.21 in 10.0 mi ENE 5.8 mph - N/A   Clear
1:14 AM 39.2 °F 35.0 °F 26.6 °F 61% 30.21 in 10.0 mi ENE 5.8 mph - N/A   Clear
1:33 AM 37.4 °F 32.8 °F 24.8 °F 60% 30.20 in 10.0 mi East 5.8 mph - N/A   Clear
1:53 AM 37.4 °F 32.8 °F 24.8 °F 60% 30.20 in 10.0 mi ENE 5.8 mph - N/A   Clear
2:14 AM 35.6 °F 32.8 °F 24.8 °F 65% 30.20 in 10.0 mi East 3.5 mph - N/A   Clear
2:33 AM 32.0 °F 27.5 °F 24.8 °F 75% 30.19 in 10.0 mi ESE 4.6 mph - N/A   Clear
2:53 AM 32.0 °F 28.7 °F 24.8 °F 75% 30.19 in 10.0 mi ESE 3.5 mph - N/A   Clear
3:13 AM 33.8 °F - 23.0 °F 65% 30.19 in 10.0 mi Calm Calm - N/A   Clear
3:33 AM 30.2 °F - 23.0 °F 75% 30.19 in 10.0 mi Calm Calm - N/A   Clear
3:54 AM 30.2 °F - 24.8 °F 80% 30.19 in 10.0 mi Calm Calm - N/A   Clear
4:13 AM 28.4 °F 24.6 °F 24.8 °F 86% 30.18 in 10.0 mi SE 3.5 mph - N/A   Clear
4:34 AM 30.2 °F 25.4 °F 26.6 °F 86% 30.18 in 10.0 mi SE 4.6 mph - N/A   Clear
4:53 AM 32.0 °F 27.5 °F 26.6 °F 80% 30.17 in 10.0 mi SE 4.6 mph - N/A   Clear
5:13 AM 32.0 °F 27.5 °F 26.6 °F 80% 30.17 in 10.0 mi SE 4.6 mph - N/A   Clear
5:33 AM 32.0 °F 28.7 °F 26.6 °F 80% 30.17 in 10.0 mi SE 3.5 mph - N/A   Clear
5:53 AM 32.0 °F - 26.6 °F 80% 30.17 in 10.0 mi Calm Calm - N/A   Clear
6:13 AM 32.0 °F - 26.6 °F 80% 30.17 in 10.0 mi Calm Calm - N/A   Clear
6:33 AM 32.0 °F - 26.6 °F 80% 30.16 in 10.0 mi Calm Calm - N/A   Clear
7:13 AM 37.4 °F 32.1 °F 28.4 °F 70% 30.16 in 10.0 mi South 6.9 mph - N/A   Clear
7:33 AM 39.2 °F 35.0 °F 28.4 °F 65% 30.15 in 10.0 mi SSE 5.8 mph - N/A   Clear
8:13 AM 42.8 °F 35.8 °F 26.6 °F 53% 30.14 in 10.0 mi SE 13.8 mph 18.4 mph N/A   Clear
8:34 AM 42.8 °F 37.5 °F 26.6 °F 53% 30.13 in 10.0 mi SE 9.2 mph 19.6 mph N/A   Clear
8:53 AM 44.6 °F 39.2 °F 26.6 °F 49% 30.13 in 10.0 mi SE 10.4 mph 16.1 mph N/A   Clear
9:13 AM 46.4 °F 41.1 °F 26.6 °F 46% 30.12 in 10.0 mi SE 11.5 mph 16.1 mph N/A   Clear
9:34 AM 48.2 °F - 26.6 °F 43% 30.11 in 10.0 mi SSE 10.4 mph 17.3 mph N/A   Scattered Clouds
10:13 AM 50.0 °F - 26.6 °F 40% 30.09 in 10.0 mi SSE 9.2 mph 16.1 mph N/A   Scattered Clouds
10:34 AM 51.8 °F - 28.4 °F 41% 30.08 in 10.0 mi SE 9.2 mph - N/A   Clear
10:53 AM 53.6 °F - 28.4 °F 38% 30.07 in 10.0 mi SSE 9.2 mph - N/A   Clear
11:13 AM 55.4 °F - 30.2 °F 38% 30.06 in 10.0 mi South 10.4 mph - N/A   Clear
11:34 AM 55.4 °F - 30.2 °F 38% 30.06 in 10.0 mi South 9.2 mph - N/A   Scattered Clouds
11:53 AM 57.2 °F - 33.8 °F 41% 30.04 in 10.0 mi South 6.9 mph - N/A   Clear
12:13 PM 57.2 °F - 33.8 °F 41% - 10.0 mi SW 9.2 mph - N/A   Clear
12:34 PM 53.6 °F - 35.6 °F 51% 30.02 in 10.0 mi West 9.2 mph - N/A   Clear
12:53 PM 53.6 °F - 35.6 °F 51% 30.00 in 10.0 mi SW 8.1 mph - N/A   Clear
1:13 PM 55.4 °F - 35.6 °F 47% 29.99 in 10.0 mi WSW 10.4 mph - N/A   Clear
1:34 PM 55.4 °F - 35.6 °F 47% 29.98 in 10.0 mi SW 9.2 mph - N/A   Clear
1:53 PM 55.4 °F - 33.8 °F 44% 29.98 in 10.0 mi SW 5.8 mph - N/A   Clear
2:13 PM 59.0 °F - 33.8 °F 39% 29.97 in 10.0 mi SSW 6.9 mph - N/A   Clear
2:34 PM 59.0 °F - 35.6 °F 42% 29.96 in 10.0 mi SW 9.2 mph - N/A   Clear
2:53 PM 57.2 °F - 35.6 °F 44% 29.95 in 10.0 mi WSW 9.2 mph - N/A   Clear
3:13 PM 57.2 °F - 35.6 °F 44% 29.93 in 10.0 mi WSW 8.1 mph - N/A   Clear
3:34 PM 57.2 °F - 35.6 °F 44% 29.93 in 10.0 mi West 8.1 mph - N/A   Clear
3:53 PM 55.4 °F - 35.6 °F 47% 29.92 in 10.0 mi West 5.8 mph - N/A   Scattered Clouds
4:13 PM 53.6 °F - 35.6 °F 51% 29.91 in 10.0 mi WSW 4.6 mph - N/A   Mostly Cloudy
4:33 PM 53.6 °F - 33.8 °F 47% 29.89 in 10.0 mi Calm Calm - N/A   Overcast
4:53 PM 55.4 °F - 37.4 °F 51% 29.88 in 10.0 mi West 3.5 mph - N/A   Overcast
5:14 PM 51.8 °F - 35.6 °F 54% 29.87 in 10.0 mi WSW 4.6 mph - N/A   Overcast
5:33 PM 51.8 °F - 35.6 °F 54% 29.87 in 10.0 mi SW 6.9 mph - N/A   Overcast
5:53 PM 51.8 °F - 35.6 °F 54% 29.88 in 10.0 mi WSW 4.6 mph - N/A   Overcast
6:14 PM 48.2 °F - 35.6 °F 62% 29.87 in 10.0 mi Calm Calm - N/A   Overcast
6:33 PM 48.2 °F - 37.4 °F 66% 29.90 in 10.0 mi NNW 16.1 mph 25.3 mph N/A   Overcast
6:53 PM 48.2 °F - 41.0 °F 76% 29.92 in 10.0 mi NNW 13.8 mph 31.1 mph 0.01 in Rain Rain
7:14 PM 46.4 °F 40.7 °F 41.0 °F 81% 29.93 in 10.0 mi NNW 12.7 mph 21.9 mph N/A   Light Drizzle
7:33 PM 46.4 °F 42.4 °F 41.0 °F 81% 29.94 in 10.0 mi NNW 8.1 mph - N/A   Overcast
7:53 PM 46.4 °F 41.9 °F 41.0 °F 81% 29.95 in 10.0 mi NNW 9.2 mph - N/A   Overcast
8:13 PM 46.4 °F 41.5 °F 41.0 °F 81% 29.96 in 10.0 mi NNW 10.4 mph 17.3 mph N/A   Overcast
8:33 PM 44.6 °F 38.1 °F 39.2 °F 81% 29.97 in 10.0 mi NNW 13.8 mph 20.7 mph N/A   Overcast
8:54 PM 42.8 °F 35.8 °F 35.6 °F 76% 29.99 in 10.0 mi NW 13.8 mph 19.6 mph N/A   Scattered Clouds
9:13 PM 42.8 °F 35.1 °F 30.2 °F 61% 30.01 in 10.0 mi NW 16.1 mph 21.9 mph N/A   Clear
9:33 PM 41.0 °F 34.7 °F 28.4 °F 61% 30.02 in 10.0 mi NW 10.4 mph 21.9 mph N/A   Clear
9:54 PM 39.2 °F 32.0 °F 28.4 °F 65% 30.03 in 10.0 mi NW 11.5 mph 16.1 mph N/A   Clear
10:13 PM 39.2 °F 34.2 °F 30.2 °F 70% 30.04 in 10.0 mi NW 6.9 mph - N/A   Clear
10:33 PM 39.2 °F 33.6 °F 30.2 °F 70% 30.04 in 10.0 mi NW 8.1 mph - N/A   Clear
10:54 PM 37.4 °F 30.8 °F 30.2 °F 75% 30.04 in 10.0 mi NW 9.2 mph - N/A   Clear
11:13 PM 37.4 °F 30.3 °F 30.2 °F 75% 30.04 in 10.0 mi NW 10.4 mph - N/A   Clear
11:33 PM 35.6 °F 29.9 °F 30.2 °F 81% 30.04 in 10.0 mi WNW 6.9 mph - N/A   Clear
11:54 PM 35.6 °F 29.9 °F 30.2 °F 81% 30.04 in 10.0 mi WNW 6.9 mph - N/A   Clear